Location: *
(40.7113°N, 73.7007°W)
Time: 03:00:38
(UTC+00:00)

Daily predictions for brighter satellites

Satellite Brightness Start Highest point End
(mag) Time Altitude Azimuth Time Altitude Azimuth Time Altitude Azimuth
Meteor 2-21 Rocket 4.3 00:02:14 10° S 00:08:18 88° WNW 00:09:39 57° N
Meteor 1-20 Rocket 4.2 00:03:08 10° NNW 00:08:55 82° W 00:09:40 68° SSW
Meteor 1-14 Rocket 4.3 00:08:13 10° NNW 00:14:09 77° W 00:14:59 65° SSW
Cosmos 1656 Rocket 4.4 00:26:39 10° SW 00:31:14 49° W 00:31:14 49° W
ATLAS CENTAUR R/B 3.5 00:28:51 10° NW 00:31:13 28° NW 00:31:13 28° NW
CZ-4C R/B 3.8 00:47:42 10° WSW 00:50:27 29° W 00:50:27 29° W
ATLAS 2AS CENTAUR R/B 3.3 00:48:28 10° NW 00:55:44 56° WSW 00:55:44 56° WSW
ATLAS 3B R/B 4.5 08:05:29 22° NNE 08:05:29 22° NNE 08:07:42 10° NNE
CZ-4C R/B 3.5 08:17:59 55° ESE 08:17:59 55° ESE 08:24:23 10° SE
CENTAUR R/B 3.4 08:30:27 43° NE 08:30:27 43° NE 08:35:02 10° NE
H-2A ROCKET BODY 4.3 08:43:14 13° SE 08:43:14 13° SE 08:43:40 10° SE
USA 267 3.8 08:34:51 10° NE 08:39:34 48° NNE 08:39:34 48° NNE
Cosmos 1244 Rocket 4.5 09:01:04 55° N 09:02:33 81° E 09:08:47 10° S
Meteor 2-10 Rocket 4.2 09:08:35 50° S 09:08:35 50° S 09:12:45 10° S
Cosmos 1943 4.4 09:11:10 31° N 09:11:10 31° N 09:14:08 10° NNE
Meteor 2-13 Rocket 4.5 09:04:48 18° N 09:09:35 77° E 09:15:44 10° SSE
Lacrosse 5 rocket 3.6 09:13:16 18° NNE 09:13:16 18° NNE 09:14:29 10° NNE
DELTA 2 R/B (1) 4.2 09:12:22 44° S 09:12:22 44° S 09:16:47 10° SE
ISS -0.8 09:16:50 13° SE 09:16:50 13° SE 09:17:18 10° SE
USA 234 3.4 09:07:52 10° ESE 09:14:21 69° NE 09:16:26 45° NNW
Lacrosse 5 3.4 09:14:17 25° N 09:15:17 26° NNE 09:19:33 10° E
Okean O Rocket 2.9 09:13:41 10° NNE 09:17:49 38° E 09:21:53 10° SSE
MOS 1-B 4.3 09:16:19 10° NNE 09:22:08 83° ESE 09:27:55 10° SSW
Cosmos 1656 Rocket 4.0 09:21:21 32° N 09:24:01 65° ENE 09:29:40 10° SSE
IDEFIX/ARIANE 42P 2.5 09:23:38 10° NNE 09:28:50 81° ESE 09:34:01 10° S
Cosmos 2251 Rocket 3.3 09:29:12 75° W 09:29:17 75° WSW 09:34:32 10° S
SeaSat 1 3.9 09:34:45 10° NE 09:39:21 38° ESE 09:43:55 10° S
Cosmos 1943 Rocket 3.3 09:43:27 26° SW 09:43:27 26° SW 09:46:13 10° SSW
Cosmos 1515 Rocket 3.4 09:41:09 66° NNW 09:41:44 80° W 09:46:07 10° S
CZ-3 R/B 3.7 09:25:20 13° WSW 09:41:53 36° S 09:48:07 10° ESE
In-Cosmos 22 Rocket 4.2 09:43:44 10° S 09:49:12 84° E 09:54:52 10° N
Cosmos 2369 Rocket 3.8 09:52:55 18° SW 09:52:55 18° SW 09:54:50 10° SSW
ATLAS 3B R/B 4.0 09:52:46 20° NNW 09:52:46 20° NNW 09:57:28 10° NNE
Meteor 1-4 Rocket 3.5 09:49:59 10° S 09:53:35 50° E 09:57:08 10° NNE
SKYMED 2 4.1 09:51:37 10° SSE 09:55:52 57° ENE 10:00:08 10° N
CZ-2C R/B 2.5 09:52:49 10° NNE 09:57:56 84° ESE 10:02:51 10° SSW
PAYLOAD A 4.0 09:54:13 10° N 09:59:28 73° WNW 10:04:50 10° SSW
Cosmos 2228 Rocket 3.0 09:57:53 30° NNW 09:59:53 59° W 10:04:16 10° S
PSLV R/B 4.5 10:03:03 26° S 10:03:03 26° S 10:05:05 10° SE
CZ-4B DEB 4.1 09:59:02 10° N 10:04:29 63° WNW 10:09:56 10° SSW
CZ-4C R/B 3.8 10:03:15 27° W 10:04:33 28° WSW 10:11:12 10° SSW
S3M 4.1 09:59:54 10° SSW 10:06:08 55° W 10:12:23 10° N
Cosmos 1500 Rocket 3.8 10:05:59 10° SSW 10:10:09 44° WNW 10:14:23 10° N
CZ-4B R/B 3.1 10:05:29 10° N 10:11:02 73° WNW 10:16:38 10° SSW
MSX 3.7 10:06:05 10° N 10:11:50 69° WNW 10:17:33 10° SSW
Cosmos 2285 Rocket 3.9 10:07:03 10° NNW 10:13:21 70° WSW 10:19:35 10° S
Cosmos 1151 Rocket 4.0 10:15:26 27° WSW 10:15:26 27° WSW 10:18:29 10° SSW
Cosmos 1892 2.6 10:13:47 10° SSW 10:17:35 60° W 10:21:27 10° N
Cosmos 1805 Rocket 3.6 10:14:47 10° S 10:19:14 82° E 10:23:42 10° N
PAYLOAD B 4.4 10:14:07 10° N 10:19:24 49° WNW 10:24:41 10° SW
CENTAUR R/B 3.5 10:17:40 23° WNW 10:19:42 26° NW 10:25:32 10° NNE
USA 161 3.3 10:19:46 10° S 10:19:51 11° S 10:19:51 11° S
Cosmos 1184 Rocket 4.2 10:23:22 23° WSW 10:23:22 23° WSW 10:25:14 10° SSW
IRS-1C Rocket 4.1 10:18:01 10° NNE 10:23:19 90° E 10:28:35 10° SSW
USA 267 4.3 10:18:14 10° NE 10:23:33 27° NNW 10:26:56 18° WNW
Cosmos 1624 Rocket 4.2 10:19:00 10° S 10:24:11 75° ESE 10:29:27 10° NNE
Okean-O 4.0 10:22:01 10° NNE 10:26:14 41° E 10:30:25 10° S
Meteor 2-19 Rocket 4.4 10:20:21 10° NNW 10:26:30 69° W 10:32:35 10° S
Cosmos 1745 Rocket 4.3 10:21:31 10° NNW 10:27:16 41° W 10:32:57 10° SSW
MOS 1-B Rocket 4.4 10:23:03 10° N 10:28:53 40° WNW 10:34:10 10° SW
NOAA 6 3.9 10:24:05 10° N 10:29:13 80° WNW 10:34:20 10° SSW
Cosmos 407 Rocket 3.9 10:24:41 10° NNW 10:29:52 65° ENE 10:35:04 10° SSE
CZ-2C R/B 4.0 10:26:27 10° SSE 10:30:49 67° ENE 10:35:14 10° N
Cosmos 1633 Rocket 4.0 10:27:50 10° S 10:32:05 51° E 10:36:20 10° NNE
SJ-12 3.8 10:32:08 10° N 10:36:13 83° WNW 10:40:17 10° SSW
Gbstr 26 Del rocket 4.0 10:34:48 20° WNW 10:36:29 26° NNW 10:39:43 10° NE
GPS 2-05 Rocket1 4.1 10:34:48 13° SW 10:36:57 26° S 10:39:28 10° ESE
Cosmos 1709 Rocket 4.0 10:37:37 10° NNW 10:43:39 61° W 10:49:37 10° S
GPS 2-04 Rocket1 3.6 10:41:22 13° WSW 10:43:57 33° S 10:47:06 10° ESE
COSMO-SKYMED 1 3.0 10:39:57 10° SSW 10:44:01 40° W 10:48:07 10° NNW
Meteor 1-26 Rocket 4.2 10:40:26 10° N 10:45:59 90° W 10:51:28 10° S
OE (NEXTSAT) 4.5 10:43:53 18° WNW 10:46:24 67° SSW 10:49:55 10° SE
Cosmos 2315 Rocket 4.1 10:40:23 10° SSW 10:46:40 62° W 10:53:00 10° N
Cosmos 1461 3.6 10:43:05 10° SSW 10:47:47 69° ESE 10:52:27 10° NE
Cosmos 2056 Rocket 3.5 10:44:37 10° SSW 10:49:53 68° WNW 10:55:06 10° NNE
Lacrosse 5 rocket 3.5 10:48:57 10° NW 10:50:36 12° NNW 10:52:14 10° N
Cosmos 1437 Rocket 3.6 10:48:28 10° SW 10:51:48 27° WNW 10:55:07 10° NNW
Cosmos 1933 3.8 10:49:52 10° NNW 10:53:43 40° W 10:57:33 10° SSW
Okean O Rocket 2.9 10:50:44 10° NNW 10:53:53 20° WNW 10:57:00 10° WSW
Cosmos 1606 2.9 10:50:40 10° N 10:54:34 75° E 10:58:25 10° SSE
Cosmos 1371 Rocket 4.2 10:49:47 10° SW 10:54:58 50° WNW 11:00:10 10° N
USA 234 4.1 10:51:51 10° S 10:57:37 33° SW 11:03:25 10° WNW
Radarsat Rocket 4.4 10:50:52 10° NNE 10:58:37 75° WNW 11:05:23 10° SSW
Lacrosse 5 1.9 10:53:37 10° NW 10:58:40 70° SW 11:03:42 10° SSE
BREEZE-M DEB 3.1 10:57:05 15° WNW 10:58:43 75° SW 11:01:03 10° SE
Cosmos 389 Rocket 3.2 10:57:30 10° SW 11:00:39 31° WNW 11:03:47 10° NNW
Cosmos 1782 3.6 10:57:42 10° N 11:01:40 55° E 11:05:36 10° SSE
Sich 1 3.3 11:00:14 10° SSW 11:04:28 45° W 11:08:42 10° N
Cosmos 1707 Rocket 3.7 11:00:29 10° NNW 11:04:42 49° W 11:08:54 10° SSW
Cosmos 1833 Rocket 4.2 10:59:47 10° S 11:05:04 42° ESE 11:10:22 10° NE
SJ-7 4.4 11:01:04 10° N 11:05:14 85° W 11:09:26 10° SSW
Orbus 7S? 3.3 11:00:37 10° NW 11:05:52 67° SW 11:08:45 10° SSE
Cosmos 1484 Rocket 3.2 11:03:58 10° N 11:07:26 37° WNW 11:10:51 10° SW
IDEFIX/ARIANE 42P 4.2 11:05:20 10° NNW 11:07:44 13° WNW 11:10:07 10° W
METEOR-M 4.3 11:07:06 10° NNE 11:12:28 84° ESE 11:17:49 10° SSW
Cosmos 1825 2.6 11:09:47 10° SSW 11:13:21 40° W 11:16:57 10° N
Cosmos 2082 Rocket 3.8 11:08:27 10° S 11:13:38 40° ESE 11:18:51 10° NE
CRYOSAT 2 4.4 11:10:04 10° N 11:14:58 81° W 11:19:51 10° S
SeaSat 1 3.3 11:12:28 10° N 11:16:43 30° NW 11:20:57 10° WSW
Cosmos 614 Rocket 3.9 11:12:10 10° NNW 11:17:16 70° WSW 11:22:18 10° S
